[[{"header":{"parameterUnit":"m.s-1","parameterCategory":1,"la1":30.2991,"la2":30.254,"lo1":-89.0895,"lo2":-89.0444,"dy":0.0017,"dx":0.0017,"nx":28,"ny":28,"refTime":"2025-07-23T21:00:00:Z","depth":0,"parameterNumber":2,"parameterNumberName":"U-component_of_WINDS"},"data":[0,0,0,0,0,0,0,0,0,0,0,0,0,0,0,0,0,0,0,0,0,0,0,0,0,0,0,0,0,0,0,0,0,0,0,0,0,0,0,0,0,0,0,0,0,0,0,0,0,0,0,0,0,0,0,0,0,0,-2.8422,-2.8423,0,-2.8604,-2.8606,-2.8608,-2.8699,-2.8699,-2.8699,-2.8699,-2.8887,-2.8892,-2.8897,0,0,0,0,0,0,0,0,0,0,0,0,0,-2.8153,-2.8158,-2.8421,-2.8424,-2.8426,-2.8604,-2.8606,-2.8609,-2.8699,-2.8699,-2.8699,-2.8699,-2.8886,-2.8892,-2.8898,0,0,0,0,0,0,0,0,0,0,0,0,0,-2.8296,-2.8159,-2.8421,-2.8492,-2.8501,-2.8603,-2.8606,-2.8609,-2.8699,-2.8699,-2.8699,-2.8699,-2.8884,-2.8891,-2.8898,-2.8944,0,0,-2.8921,-2.8925,0,0,0,0,0,0,0,0,-2.8288,-2.8306,-2.848,-2.8488,-2.8497,-2.8629,-2.8581,-2.8722,-2.8699,-2.8624,-2.8699,-2.8699,-2.8801,-2.8816,-2.885,-2.8953,-2.8961,-2.8922,-2.8927,-2.893,-2.8932,0,0,0,0,0,0,0,-2.8278,-2.8299,-2.8494,-2.8482,-2.8493,-2.8516,-2.8536,-2.8608,-2.871,-2.863,-2.8637,-2.8658,-2.8806,-2.8842,-2.8855,-2.8964,-2.8922,-2.8929,-2.8933,-2.8936,-2.9117,-2.9117,0,0,0,0,0,0,-2.8256,-2.829,-2.8488,-2.8499,-2.839,-2.8521,-2.8544,-2.8586,-2.871,-2.8728,-2.8657,-2.8661,-2.883,-2.8846,-2.8862,-2.8925,-2.893,-2.8937,-2.8941,-2.9117,-2.9117,-2.9117,0,0,0,0,0,0,-2.825,-2.8273,-2.8481,-2.8396,-2.8425,-2.8525,-2.8573,-2.859,-2.8626,-2.873,-2.8749,-2.8675,-2.883,-2.8851,-2.8924,-2.8933,-2.894,-2.8947,-2.9116,-2.9117,-2.9117,-2.9051,0,0,0,0,0,0,-2.8242,-2.827,-2.8288,-2.8396,-2.8429,-2.8538,-2.8573,-2.8594,-2.8639,-2.8646,-2.8752,-2.877,-2.8832,-2.8912,-2.8931,-2.8943,-2.8953,-2.9116,-2.9116,-2.9117,-2.9053,-2.9049,-2.9046,0,0,0,0,0,-2.8232,-2.8262,-2.8288,-2.8312,-2.8453,-2.8538,-2.8557,-2.8627,-2.8639,-2.8658,-2.8726,-2.8766,-2.8929,-2.8919,-2.8941,-2.8956,-2.9116,-2.9116,-2.9117,-2.9054,-2.905,-2.9046,0,0,0,0,0,0,-2.8151,-2.8277,-2.8308,-2.8373,-2.8444,-2.8553,-2.8579,-2.862,-2.869,-2.8693,-2.8778,-2.8801,-2.8866,-2.8919,-2.8905,-2.9008,-2.9027,-2.9032,-2.8971,-2.8968,-2.8964,-2.895,-2.8959,0,0,0,0,0,-2.8141,-2.8199,-2.8306,-2.8354,-2.8388,-2.8477,-2.8517,-2.8565,-2.8643,-2.8673,-2.8746,-2.882,-2.8888,-2.8931,-2.8999,-2.9061,-2.9087,-2.9082,-2.9079,-2.9076,-2.9079,-2.9118,-2.9118,-2.912,-2.912,-2.912,0,0,-2.8121,-2.8197,-2.8228,-2.834,-2.84,-2.846,-2.8502,-2.8562,-2.8608,-2.8683,-2.8755,-2.8811,-2.89,-2.8967,-2.9001,-2.9013,-2.9084,-2.9077,-2.9073,-2.9079,-2.9118,-2.9118,-2.9118,-2.912,-2.912,-2.912,0,0,-2.8113,-2.8176,-2.8223,-2.8284,-2.8376,-2.8436,-2.8447,-2.855,-2.859,-2.8665,-2.8723,-2.8779,-2.8893,-2.8955,-2.9001,-2.902,-2.9061,-2.904,-2.9022,-2.9058,-2.9058,-2.9059,-2.9066,-2.9068,-2.9043,-2.9043,-2.9043,0,-2.8076,-2.8167,-2.8242,-2.83,-2.8348,-2.842,-2.8469,-2.8524,-2.8633,-2.8665,-2.8677,-2.8825,-2.8889,-2.8973,-2.8978,-2.9013,-2.9029,-2.9027,-2.9052,-2.9053,-2.9055,-2.9063,-2.9066,-2.904,-2.904,-2.904,-2.9041,0,-2.8118,-2.818,-2.8207,-2.8311,-2.8363,-2.8416,-2.85,-2.8543,-2.8588,-2.8647,-2.8723,-2.8803,-2.889,-2.8913,-2.8957,-2.9004,-2.9009,-2.9035,-2.9056,-2.905,-2.9059,-2.9063,-2.9035,-2.9036,-2.9037,-2.9038,0,0,-2.8063,-2.8209,-2.8218,-2.8267,-2.8375,-2.8425,-2.8483,-2.8567,-2.8603,-2.8677,-2.8728,-2.8825,-2.8851,-2.8903,-2.8955,-2.8987,-2.8999,-2.901,-2.9014,-2.9006,-2.9058,-2.9037,-2.9039,-2.9027,-2.9028,-2.9029,-2.905,0,-2.8071,-2.8176,-2.8247,-2.8324,-2.8384,-2.8454,-2.8504,-2.8577,-2.8634,-2.8694,-2.8758,-2.8825,-2.8853,-2.8886,-2.8921,-2.8989,-2.901,-2.8989,-2.9076,-2.9078,-2.9051,-2.9044,-2.9022,-2.9038,-2.9054,-2.9055,-2.9056,0,-2.8094,-2.8166,-2.8249,-2.8353,-2.8381,-2.8424,-2.8509,-2.8565,-2.8649,-2.8689,-2.8748,-2.8802,-2.8867,-2.8882,-2.8974,-2.8958,-2.8999,-2.9038,-2.9041,-2.9051,-2.9066,-2.9055,-2.9045,-2.9047,-2.9062,-2.9061,-2.9061,0,-2.8046,-2.8164,-2.823,-2.827,-2.8392,-2.8421,-2.8473,-2.8558,-2.8605,-2.8679,-2.8711,-2.8792,-2.8836,-2.8899,-2.8974,-2.8978,-2.9059,-2.908,-2.9095,-2.9093,-2.9108,-2.9106,-2.9105,-2.9133,-2.9133,-2.9133,-2.9133,0,-2.8047,-2.8096,-2.821,-2.8251,-2.8308,-2.839,-2.8445,-2.8503,-2.8578,-2.8632,-2.8698,-2.8748,-2.8843,-2.8905,-2.8964,-2.9033,-2.9052,-2.9087,-2.9102,-2.9081,-2.9076,-2.9108,-2.9109,-2.9134,-2.9134,-2.9134,-2.9134,0,-2.8003,-2.8081,-2.8158,-2.8268,-2.8297,-2.8334,-2.8429,-2.8472,-2.8533,-2.8601,-2.8622,-2.8719,-2.8796,-2.8876,-2.898,-2.9021,-2.9086,-2.9108,-2.9057,-2.9066,-2.9076,-2.9074,-2.9095,-2.9103,-2.9126,-2.9125,-2.9125,0,-2.7998,-2.8037,-2.8152,-2.8193,-2.8243,-2.8308,-2.8357,-2.844,-2.8488,-2.8589,-2.862,-2.8702,-2.8771,-2.8891,-2.8971,-2.9052,-2.9076,-2.9078,-2.9088,-2.9067,-2.9077,-2.9073,-2.9078,-2.9074,-2.9073,-2.9073,-2.9072,0,-2.7982,-2.8019,-2.8087,-2.8168,-2.8225,-2.8293,-2.8364,-2.8394,-2.8492,-2.8543,-2.8622,-2.8676,-2.8784,-2.8864,-2.8955,-2.9011,-2.9058,-2.9069,-2.9076,-2.9055,-2.9024,-2.9042,-2.9048,-2.9067,-2.9068,-2.9068,-2.9068,-2.9069,-2.7958,-2.7996,-2.8083,-2.8157,-2.8219,-2.8285,-2.8331,-2.8399,-2.8466,-2.8559,-2.8605,-2.8684,-2.8771,-2.8898,-2.8953,-2.9017,-2.9031,-2.9042,-2.9045,-2.9046,-2.9041,-2.9014,-2.9034,-2.9035,-2.9035,-2.9035,-2.9035,0,-2.7945,-2.8005,-2.8072,-2.817,-2.8228,-2.8268,-2.8349,-2.8396,-2.8465,-2.8541,-2.8609,-2.8701,-2.878,-2.8868,-2.8953,-2.8988,-2.9013,-2.9008,-2.9006,-2.9019,-2.9024,-2.9009,-2.8987,-2.8987,-2.8987,-2.8987,-2.8987,-2.8987,-2.7945,-2.8013,-2.8061,-2.8162,-2.8223,-2.83,-2.8344,-2.8405,-2.8467,-2.8567,-2.8633,-2.869,-2.8772,-2.8864,-2.8939,-2.8964,-2.8992,-2.8981,-2.9012,-2.9014,-2.9018,-2.9022,-2.9008,-2.8987,-2.8987,-2.9002,-2.9002,-2.9002]},{"header":{"parameterUnit":"m.s-1","parameterCategory":1,"la1":30.2991,"la2":30.254,"lo1":-89.0895,"lo2":-89.0444,"dy":0.0017,"dx":0.0017,"nx":28,"ny":28,"refTime":"2025-07-23T21:00:00:Z","depth":0,"parameterNumber":3,"parameterNumberName":"V-component_of_WINDS"},"data":[0,0,0,0,0,0,0,0,0,0,0,0,0,0,0,0,0,0,0,0,0,0,0,0,0,0,0,0,0,0,0,0,0,0,0,0,0,0,0,0,0,0,0,0,0,0,0,0,0,0,0,0,0,0,0,0,0,0,1.8774,1.8773,0,1.8699,1.8698,1.8697,1.8686,1.8687,1.8688,1.8688,1.8606,1.8603,1.86,0,0,0,0,0,0,0,0,0,0,0,0,0,1.8901,1.8899,1.8774,1.8773,1.8772,1.8699,1.8698,1.8697,1.8686,1.8687,1.8688,1.8689,1.8607,1.8603,1.86,0,0,0,0,0,0,0,0,0,0,0,0,0,1.8838,1.8898,1.8774,1.8758,1.8756,1.8699,1.8698,1.8697,1.8686,1.8687,1.8688,1.8689,1.8608,1.8604,1.86,1.8552,0,0,1.8586,1.8585,0,0,0,0,0,0,0,0,1.8841,1.8833,1.8761,1.8759,1.8757,1.8703,1.8713,1.8648,1.8686,1.8712,1.8688,1.8689,1.8637,1.863,1.8614,1.8548,1.8545,1.8586,1.8584,1.8582,1.858,0,0,0,0,0,0,0,1.8846,1.8836,1.8744,1.876,1.8757,1.8752,1.8744,1.87,1.8669,1.871,1.8709,1.8701,1.8636,1.8618,1.8612,1.8544,1.8586,1.8582,1.858,1.8578,1.8432,1.8431,0,0,0,0,0,0,1.8854,1.884,1.8747,1.8742,1.8803,1.8749,1.874,1.8719,1.867,1.8664,1.87,1.87,1.8625,1.8617,1.8609,1.8548,1.8582,1.8578,1.8575,1.8433,1.8432,1.843,0,0,0,0,0,0,1.8857,1.8846,1.875,1.8791,1.8778,1.8746,1.8722,1.8717,1.8699,1.8662,1.8656,1.8688,1.8625,1.8615,1.8566,1.8545,1.8576,1.8572,1.8435,1.8433,1.8431,1.8427,0,0,0,0,0,0,1.886,1.8847,1.883,1.879,1.8776,1.871,1.8721,1.8715,1.8693,1.8693,1.8649,1.8643,1.8625,1.8572,1.8562,1.854,1.8569,1.8436,1.8434,1.8432,1.8429,1.8426,1.8422,0,0,0,0,0,1.8865,1.8832,1.883,1.8818,1.8755,1.8709,1.8701,1.8682,1.8691,1.8673,1.8649,1.8644,1.8549,1.8568,1.8555,1.8532,1.8438,1.8435,1.8432,1.8431,1.8426,1.8423,0,0,0,0,0,0,1.8869,1.8826,1.8823,1.8777,1.8747,1.8707,1.8684,1.8679,1.8644,1.8645,1.8622,1.8613,1.8564,1.8543,1.8564,1.8482,1.8494,1.8488,1.8497,1.8493,1.8489,1.8495,1.8565,0,0,0,0,0,1.8864,1.8833,1.8797,1.8759,1.8744,1.8717,1.8696,1.8685,1.8652,1.8638,1.8611,1.8577,1.8539,1.8515,1.8479,1.8426,1.8415,1.8404,1.84,1.8398,1.8393,1.836,1.8354,1.842,1.842,1.8421,0,0,1.8854,1.8827,1.8809,1.8759,1.8734,1.8699,1.8706,1.867,1.8642,1.8632,1.8584,1.8563,1.8523,1.8472,1.8448,1.8453,1.8372,1.8394,1.8392,1.8388,1.8357,1.8351,1.8345,1.8418,1.8419,1.8419,0,0,1.8819,1.8796,1.8761,1.8736,1.8699,1.8681,1.8672,1.8633,1.8619,1.8571,1.8562,1.8528,1.8465,1.8436,1.8413,1.8365,1.8358,1.8353,1.8335,1.8304,1.8298,1.8294,1.8274,1.8267,1.8349,1.8349,1.8348,0,1.881,1.876,1.8743,1.8707,1.8684,1.8674,1.8636,1.8613,1.8565,1.8548,1.8555,1.8473,1.8446,1.8386,1.8374,1.8357,1.8344,1.8358,1.8301,1.8296,1.8291,1.8272,1.8265,1.8348,1.8348,1.8348,1.8348,0,1.8751,1.8715,1.8691,1.8646,1.8621,1.8584,1.8559,1.8534,1.8524,1.8505,1.8454,1.8421,1.8377,1.8362,1.8352,1.83,1.8304,1.8306,1.8317,1.8285,1.8266,1.8258,1.8347,1.8347,1.8348,1.8348,0,0,1.8715,1.8661,1.8652,1.8631,1.8588,1.8559,1.8521,1.8478,1.8457,1.8423,1.8388,1.8334,1.8335,1.8309,1.8295,1.8268,1.8228,1.8273,1.8272,1.8264,1.8165,1.8163,1.8155,1.8224,1.8223,1.8222,1.8168,0,1.8673,1.8606,1.8589,1.8531,1.8496,1.8485,1.8451,1.842,1.8399,1.8365,1.8342,1.8303,1.8309,1.8293,1.8265,1.8239,1.8208,1.8243,1.8189,1.8187,1.8197,1.8145,1.8143,1.8094,1.8161,1.816,1.8159,0,1.8615,1.8582,1.8521,1.848,1.8465,1.8435,1.8393,1.8362,1.8325,1.8311,1.8282,1.827,1.8226,1.8241,1.8178,1.8202,1.8179,1.8162,1.816,1.8153,1.817,1.8135,1.8078,1.807,1.8147,1.8148,1.8149,0,1.8593,1.8533,1.8487,1.847,1.8422,1.8401,1.8379,1.8344,1.8318,1.8281,1.8264,1.8222,1.8198,1.8165,1.8141,1.8154,1.8079,1.8092,1.8064,1.8065,1.8048,1.8049,1.7985,1.8036,1.8036,1.8036,1.8037,0,1.8547,1.8509,1.8477,1.8449,1.8405,1.8384,1.8341,1.8319,1.8286,1.8252,1.8239,1.8207,1.8178,1.814,1.8121,1.807,1.806,1.8046,1.8041,1.8047,1.8048,1.803,1.8032,1.8034,1.8035,1.8035,1.8036,0,1.8515,1.8492,1.8442,1.8401,1.8389,1.8359,1.8322,1.8293,1.8272,1.8228,1.8216,1.8182,1.8137,1.811,1.8053,1.804,1.7983,1.7981,1.7996,1.7994,1.7966,1.7968,1.7887,1.7874,1.7935,1.7935,1.7934,0,1.8487,1.8457,1.8413,1.839,1.8369,1.8331,1.8306,1.8283,1.8256,1.821,1.8185,1.814,1.8102,1.803,1.7999,1.7954,1.7949,1.7923,1.7942,1.7947,1.7946,1.7947,1.7943,1.792,1.7919,1.7919,1.7919,0,1.8438,1.8427,1.8392,1.8351,1.8321,1.8288,1.8254,1.8235,1.8206,1.8176,1.8131,1.8102,1.8043,1.7996,1.7949,1.7924,1.7915,1.7913,1.7904,1.7908,1.7917,1.7909,1.7986,1.7915,1.7915,1.7915,1.7916,1.7916,1.8405,1.8377,1.8342,1.8301,1.8274,1.8243,1.8212,1.8188,1.815,1.8101,1.8089,1.8041,1.8001,1.7936,1.791,1.787,1.7873,1.7861,1.7857,1.7854,1.7852,1.7925,1.7861,1.7861,1.7861,1.7861,1.7861,0,1.8353,1.833,1.8293,1.8247,1.8214,1.8211,1.8173,1.8145,1.8103,1.8068,1.8031,1.7977,1.7931,1.7896,1.7848,1.7822,1.7817,1.781,1.7811,1.7805,1.7852,1.7864,1.7816,1.7816,1.7816,1.7816,1.7816,1.7816,1.8323,1.8276,1.826,1.8198,1.8173,1.8127,1.8105,1.8075,1.8046,1.7987,1.7949,1.7927,1.789,1.784,1.7797,1.7787,1.7769,1.7763,1.7752,1.7797,1.7802,1.7807,1.7818,1.776,1.776,1.7708,1.7707,1.7707]}]]